Regional Weather Roundup
Issued by NWS

Home | Current Version | Previous Version | Text Only | Print | Product List | Glossary Off
Versions: 1 2 3 4 5 6 7 8 9 10 11 12 13 14 15 16 17 18 19 20 21 22 23 24 25 26 27 28 29 30 31 32 33 34 35 36 37 38 39 40 41 42 43 44 45 46 47 48 49 50

000
ASUS43 KDTX 281910
RWRMI
MICHIGAN HOURLY REGIONAL WEATHER ROUNDUP
NATIONAL WEATHER SERVICE DETROIT/PONTIAC MI
300 PM EDT THU APR 28 2016

NOTE: "FAIR" INDICATES FEW OR NO CLOUDS BELOW 12,000 FEET WITH NO
SIGNIFICANT WEATHER AND/OR OBSTRUCTION TO VISIBILITY.

MIZ047>049-052>055-059>063-066>070-074>076-081>083-282000-
SOUTHEAST LOWER MICHIGAN

CITY           SKY/WX    TMP DP  RH WIND       PRES   REMARKS
ADRIAN         CLOUDY    46  37  71 E13       29.95S
ALMA           LGT RAIN  42  35  75 NE14      30.01S
ANN ARBOR      LGT RAIN  46  33  60 E12       29.96S
BAD AXE        CLOUDY    46  29  51 NE7       30.04R
CARO           CLOUDY    49  24  37 E5        30.02R
DETROIT CITY   CLOUDY    46  32  58 E9        29.98S
DETROIT        LGT RAIN  49  28  44 NE13      29.97S
FLINT          LGT RAIN  49  32  52 NE9       30.01R
GROSSE ILE     LGT RAIN  46  36  66 E7        29.95R
HILLSDALE      CLOUDY    47  38  72 E12       29.94R
HOWELL         LGT RAIN  45  37  73 E6        29.99R

CITY           SKY/WX    TMP DP  RH WIND       PRES   REMARKS
JACKSON        CLOUDY    43  39  86 E10       29.96S
LAMBERTVILLE   CLOUDY    48  35  61 E16G24    29.94F
LANSING        LGT RAIN  43  38  82 E12       29.97F
LAPEER         LGT RAIN  46  26  44 NE5       30.01R
MASON          CLOUDY    46  39  78 E13       29.96F
MONROE         CLOUDY    45  39  78 E9        29.95S
MT. CLEMENS    LGT RAIN  46  33  62 NE9       29.97F
PONTIAC        CLOUDY    46  29  51 E13       29.97S
PORT HOPE        N/A     40  35  83 NE15      30.03F WCI  32
PORT HURON     CLOUDY    50  27  40 E6        30.00R
TRI CITIES     CLOUDY    48  26  42 E10       30.04R
MIDLAND        CLOUDY    45  32  59 NE8       30.04S
TROY           CLOUDY    47  29  50 E8        30.00S
SAGINAW HB     CLOUDY    46  30  53 NE8       30.02F
$$
MIZ043>046-050>051-056>058-064>065-071>073-077>080-282000-
SOUTHWEST LOWER MICHIGAN

CITY           SKY/WX    TMP DP  RH WIND       PRES   REMARKS
BATTLE CREEK   CLOUDY    46  39  76 E12       29.95R
BENTON HARBOR  CLOUDY    51  42  71 E10       29.91S
BIG RAPIDS     LGT RAIN  40  35  80 E7        30.02S
COLDWATER      CLOUDY    49  39  67 E15       29.93S
FREMONT        LGT RAIN  40  36  85 E16       30.00S WCI  32
HOLLAND        CLOUDY    43  39  86 E12       29.97R
GRAND RAPIDS   CLOUDY    42  38  85 E10       29.98R
IONIA          CLOUDY    41  36  84 NE12G18   29.98R
KALAMAZOO      CLOUDY    48  39  71 E6        29.94R
LUDINGTON      DRIZZLE   41  37  85 E13G18    30.04S
MARSHALL       CLOUDY    47  40  78 E7        29.94S
MOUNT PLEASANT LGT RAIN  42  37  84 NE7       30.02S
MUSKEGON       CLOUDY    41  36  82 NE15G23   29.99S
SOUTH HAVEN    CLOUDY    47  41  78 E10       29.93S
$$
MIZ016>042-282000-
NORTHERN LOWER MICHIGAN

CITY           SKY/WX    TMP DP  RH WIND       PRES   REMARKS
ALPENA         PTSUNNY   46  29  51 E12       30.10S
BEAVER ISLAND  MOSUNNY   44  31  60 NE12G18   30.09S
BELLAIRE       CLOUDY    54  22  28 E6        30.04S
CADILLAC       LGT RAIN  45  26  47 E12       30.02S
CHARLEVOIX     MOSUNNY   53  27  37 N7        30.08S
FRANKFORT      CLOUDY    51  25  36 SE7       30.04R
GAYLORD        CLOUDY    50  25  37 E9        30.03F
GRAYLING       PTSUNNY   52  24  33 E9        30.04S
HARBOR SPRINGS MOSUNNY   49  28  45 NE10      30.06F
HOUGHTON LAKE  CLOUDY    46  22  38 E10       30.05R
MANISTEE       CLOUDY    45  30  57 SE6       30.05S
OSCODA         CLOUDY    42  30  62 NE14      30.07S
PELLSTON       MOSUNNY   48  27  44 E9        30.08S
ROGERS CITY    PTSUNNY   40  27  61 E13       30.12S WCI  32
TRAVERSE CITY  CLOUDY    53  24  32 S6        30.03R
$$
MIZ007>008-015-282000-
EASTERN UPPER MICHIGAN

CITY           SKY/WX    TMP DP  RH WIND       PRES   REMARKS
KINROSS          N/A     48  21  34 E9G16     30.09S
MACKINAC ISLAN MOSUNNY   40  28  62 E9G16     30.11R WCI  33
NEWBERRY       MOSUNNY   52  26  37 SW6       30.07F
S. S. MARIE    MOSUNNY   51  25  36 S6        30.08F
MUNISING         N/A     40  32  73 N9        30.10S WCI  34
$$
MIZ004>006-011>014-085-282000-
CENTRAL UPPER MICHIGAN

CITY           SKY/WX    TMP DP  RH WIND       PRES   REMARKS
MANISTIQUE     PTSUNNY   46  29  51 SE9       30.09S
ESCANABA       CLOUDY    48  27  43 E12       30.08F
MENOMINEE      CLOUDY    43  28  56 E16       30.07S
SAWYER-GWINN   SUNNY     45  25  45 NE17      30.10S
$$
MIZ001>003-009>011-084-282000-
WESTERN UPPER MICHIGAN

CITY           SKY/WX    TMP DP  RH WIND       PRES   REMARKS
IRON MOUNTAIN  CLOUDY    52  21  29 SE9       30.04F
HOUGHTON       CLOUDY    45  24  43 E14G22    30.11S
COPPER HARBOR    N/A     40  31  70 E8        30.15S WCI  34
IRONWOOD       CLOUDY    46  32  57 N13       30.03S
$$

ABBREVIATIONS USED IN REMARKS
   TC - TEMPERATURE IN CELSIUS
  WCI - WIND CHILL INDEX
   HX - HEAT INDEX
  VSB - VISIBILITY





USA.gov is the U.S. government's official web portal to all federal, state and local government web resources and services.